This demonstration page uses our WeatherBlox Daily Observations layout. Learn more.

39.92423, -83.80882

Hourly Observations for May 24, 2019

Temp ( °F °C ) Dew Point ( °F °C ) Humidity (%) Winds ( mph kmh ) Pressure ( in mb ) Visibility ( mi km ) Precip ( " mm )
12:56 am 00:56 Clear 67 19.4 64 17.8 91 91 WNW 5 7 30.08 1019 10 16.0934 0 0
1:56 am 01:56 Clear 65 18.3 61 16.1 87 87 NW 6 9 30.09 1019 10 16.0934 0 0
2:56 am 02:56 Clear 64 17.8 62 16.7 93 93 W 3 6 30.09 1019 10 16.0934 0 0
3:56 am 03:56 Clear 62 16.7 60 15.6 93 93 Calm 30.09 1019 10 16.0934 0.01 0.254
4:56 am 04:56 Clear 60 15.6 60 15.6 100 100 Calm 30.1 1019 10 16.0934 0 0
5:56 am 05:56 Clear with Mist and Fog 58 14.4 58 14.4 100 100 Calm 30.11 1020 2.5 4.02335 0 0
6:08 am 06:08 Clear with Mist and Fog 57 14 57 14 100 100 ESE 3 6 30.13 1020 5 8.0467 0 0
6:27 am 06:27 Sunny with Mist and Fog 55 13 55 13 100 100 Calm 30.14 1021 1.75 2.816345 0 0
6:37 am 06:37 Sunny with Mist and Fog 57 14 57 14 100 100 NE 3 6 30.14 1020 3 4.82802 0 0
6:56 am 06:56 Sunny 57 13.9 57 13.9 100 100 ENE 5 7 30.14 1021 10 16.0934 0 0
7:56 am 07:56 Sunny 63 17.2 60 15.6 90 90 ESE 5 7 30.14 1021 10 16.0934 0 0
8:56 am 08:56 Sunny 67 19.4 57 13.9 71 71 ESE 9 15 30.14 1021 10 16.0934 0 0
9:56 am 09:56 Partly Cloudy 69 20.6 57 13.9 66 66 SE 9 15 30.13 1020 10 16.0934 0 0
10:18 am 10:18 Mostly Cloudy 70 21 57 14 64 64 SE 6 9 30.13 1020 10 16.0934 0 0
10:53 am 10:53 Mostly Cloudy 72 22 59 15 65 65 VRB 3 6 30.12 1020 10 16.0934 0 0
10:56 am 10:56 Mostly Cloudy 71 21.7 58 14.4 63 63 ENE 6 9 30.15 1021 10 16.0934 0 0
11:04 am 11:04 Cloudy 70 21 57 14 64 64 E 6 9 30.13 1020 10 16.0934 0 0
11:56 am 11:56 Cloudy with Haze 72 22.2 59 15 64 64 NE 10 17 30.15 1021 2.5 4.02335 0 0
12:00 pm 12:00 Cloudy with Nearby Thunderstorms 72 22 59 15 65 65 NE 10 17 30.13 1020 4 6.43736 0 0
12:35 pm 12:35 Cloudy with Light Rain 68 20 59 15 73 73 NE 10 17 30.14 1021 10 16.0934 0 0.0254
12:56 pm 12:56 Cloudy 69 20.6 61 16.1 76 76 NE 12 19 30.15 1021 10 16.0934 0 0.0254
1:23 pm 13:23 Cloudy 70 21 61 16 73 73 E 8 13 30.13 1020 10 16.0934 0 0
1:56 pm 13:56 Cloudy 70 21.1 61 16.1 73 73 ENE 7 11 30.15 1021 10 16.0934 0 0
2:56 pm 14:56 Sunny 73 22.8 63 17.2 71 71 E 10 17 30.13 1020 10 16.0934 0 0
3:56 pm 15:56 Sunny 76 24.4 64 17.8 67 67 ESE 6 9 30.13 1020 10 16.0934 0 0
4:02 pm 16:02 Hazy 75 24 63 17 65 65 VRB 3 6 30.1 1019 1.75 2.816345 0 0
4:13 pm 16:13 Hazy 77 25 64 18 65 65 ENE 6 9 30.09 1019 0.75 1.207005 0 0
4:20 pm 16:20 Hazy 77 25 64 18 65 65 Calm 30.09 1019 0.5 0.80467 0 0
4:23 pm 16:23 Hazy 77 25 64 18 65 65 Calm 30.09 1019 1 1.60934 0 0
4:28 pm 16:28 Hazy 79 26 64 18 61 61 SE 6 9 30.09 1019 2 3.21868 0 0
4:36 pm 16:36 Sunny 79 26 64 18 61 61 Calm 30.08 1019 10 16.0934 0 0
4:56 pm 16:56 Sunny 79 26.1 65 18.3 62 62 SSW 3 6 30.11 1020 10 16.0934 0 0
5:56 pm 17:56 Mostly Cloudy 79 26.1 68 20 69 69 Calm 30.11 1020 10 16.0934 0 0
6:56 pm 18:56 Sunny 79 26.1 68 20 69 69 SE 3 6 30.07 1018 10 16.0934 0 0
7:56 pm 19:56 Sunny 78 25.6 69 20.6 74 74 SE 6 9 30.04 1017 10 16.0934 0 0
8:56 pm 20:56 Clear 76 24.4 69 20.6 79 79 SSE 6 9 30.02 1017 10 16.0934 0 0
9:56 pm 21:56 Clear 72 22.2 67 19.4 84 84 SE 8 13 30.03 1017 10 16.0934 0 0
10:56 pm 22:56 Clear 68 20 66 18.9 93 93 ESE 6 9 30.04 1017 10 16.0934 0 0
11:56 pm 23:56 Clear 66 18.9 65 18.3 96 96 ESE 6 9 30.05 1018 10 16.0934 0 0

Powered by AerisWeather